Location: Newark
(41.6500°N, 71.4833°W)
Time: 11:37:02
(UTC+00:00)

Courier 1B - Pass Details

Date: 23 January 2020
Orbit: 962 x 1209 km, 28.3° (Epoch: 22 February)

Event Time Altitude Azimuth Distance (km) Brightness Sun altitude
Rises 06:44:52 0° 203° (SSW) 3,852 - -58.3°
Reaches altitude 10° 06:49:34 10° 176° (S) 2,961 - -57.6°
Maximum altitude 06:52:20 12° 153° (SSE) 2,819 - -57.2°
Drops below altitude 10° 06:55:08 10° 131° (SE) 3,032 - -56.7°
Exits shadow 06:59:06 - 108° (ESE) 3,802 10.9 -56.1°
Sets 07:00:05 0° 104° (ESE) 4,048 11.1 -55.9°
